[Iaude] MPEC D94: 2024 DL1 [a=1.91,e=0.51,i=1.7,H=27.2]

mpec at cfa.harvard.edu mpec at cfa.harvard.edu
Tue Feb 20 20:49:38 EST 2024


M.P.E.C. 2024-D94                             Issued 2024 February 21, 01:43 UT

     The Minor Planet Electronic Circulars contain information on unusual
         minor planets, routine data on comets and natural satellites,
         and occasional editorial announcements.  They are published
    on behalf of Division F of the International Astronomical Union by the
          Minor Planet Center, Smithsonian Astrophysical Observatory,
                          Cambridge, MA 02138, U.S.A.
			  
             Prepared using the Tamkin Foundation Computer Network

                              MPC at CFA.HARVARD.EDU
            URL https://www.minorplanetcenter.net/    ISSN 1523-6714

                                    2024 DL1                                    


Observations:
     K24D01L*1C2024 02 19.42911912 46 33.049+19 10 55.06         20.08GVED094G96
     K24D01L 1C2024 02 19.43432012 46 54.743+19 10 07.39         19.52GVED094G96
     K24D01L 1C2024 02 19.43952012 47 16.696+19 09 21.31         19.52GVED094G96
     K24D01L 1C2024 02 19.44472712 47 38.648+19 08 31.09         20.14GVED094G96
     K24D01L 1C2024 02 19.55109612 55 12.198+18 50 44.48         20.04GVED094G96
     K24D01L 1C2024 02 19.55139912 55 13.512+18 50 41.32         19.82GVED094G96
     K24D01L 1C2024 02 19.55169812 55 14.801+18 50 37.68         19.24GVED094G96
     K24D01L KC2024 02 19.94250313 26 04.09 +17 30 28.5          19.7 GVED094L01
     K24D01L KC2024 02 19.94420913 26 12.03 +17 30 06.0          20.0 GVED094L01
     K24D01L pC2024 02 19.94611713 26 21.03 +17 29 40.2          19.8 GVED094L01
     K24D01L KC2024 02 19.96820013 28 04.17 +17 24 44.6          19.7 GVED094L01
     K24D01L KC2024 02 19.97000913 28 12.65 +17 24 20.2          19.8 GVED094L01
     K24D01L KC2024 02 19.97181613 28 21.08 +17 23 55.0          19.8 GVED094L01
     K24D01L KC2024 02 20.38107614 01 08.13 +15 36 56.0          20.0 GVED094H21
     K24D01L KC2024 02 20.38265714 01 15.59 +15 36 28.6          20.2 GVED094H21
     K24D01L KC2024 02 20.38423914 01 23.03 +15 36 00.8          20.2 GVED094H21
     K24D01L KC2024 02 20.38624214 01 32.50 +15 35 25.8          20.4 GVED094H21
     K24D01L KC2024 02 20.43093814 05 15.054+15 23 07.12         20.41GVED094I52
     K24D01L KC2024 02 20.43162814 05 18.308+15 22 54.88         20.18GVED094I52
     K24D01L KC2024 02 20.43231914 05 21.534+15 22 42.38         19.82GVED094I52

Observer details:
G96 Mt. Lemmon Survey.  Observers T. Beuden, G. J. Leonard.  Measurers T.
    Beuden, V. F. Carvajal, D. Fay, J. B. Fazekas, D. C. Fuls, A. R. Gibbs, A.
    D. Grauer, H. Groeller, J. K. Hogan, R. A. Kowalski, S. M. Larson, G. J.
    Leonard, D. Rankin, R. L. Seaman, F. C. Shelly, K. W. Wierzchos.  1.5-m
    reflector + 10K CCD.
H21 Astronomical Research Observatory, Westfield.  Observer R. Holmes.
    Measurers T. Linder, R. Holmes, L. Horn.  0.76-m f/3.0 astrograph + CCD.
I52 Steward Observatory, Mt. Lemmon Station.  Observer R. A. Kowalski.
    Measurers E. C. Beshore, D. Fay, J. B. Fazekas, D. C. Fuls, A. R. Gibbs,
    A. D. Grauer, H. Groeller, J. K. Hogan, R. A. Kowalski, S. M. Larson, G.
    J. Leonard, D. Rankin, R. L. Seaman, F. C. Shelly, K. W. Wierzchos.  1.0-m
    prime focus + CCD.
L01 Visnjan Observatory, Tican.  Observer K. Korlevic.  1.0-m f/2.9 reflector
    + CCD.

Orbital elements:
2024 DL1                                                 Earth MOID = 0.0084 AU
Epoch 2024 Mar. 31.0 TT = JDT 2460400.5                 Veres                   
M   3.98895              (2000.0)            P               Q                  
n   0.37301981     Peri.   51.18277     -0.98774710     +0.15471015             
a   1.9112380      Node   137.70586     -0.15096219     -0.91386364             
e   0.5141606      Incl.    1.74610     -0.03957383     -0.37539049             
P   2.64           H   27.26          G   0.15           U   8                  
Residuals in seconds of arc
240219 G96 (2.7-  0.8+)   240219 L01  0.1-  0.0     240220 H21  0.0   0.1+
240219 G96 (3.8-  0.6+)   240219 L01  0.6-  0.1+    240220 H21  0.2-  0.1-
240219 G96  1.6-  2.3+    240219 L01  0.5+  0.4-    240220 H21  0.2+  0.0
240219 G96  0.1-  0.4+    240219 L01  0.2-  0.1+    240220 I52  0.1+  0.1+
240219 G96  0.1+  0.1-    240219 L01  0.2+  0.2+    240220 I52  0.3+  0.2+
240219 G96  0.1+  0.0     240219 L01  0.1+  0.5-    240220 I52  0.0   0.1-
240219 G96  0.0   0.5-    240220 H21  0.1-  0.1-

Ephemeris:
2024 DL1                 a,e,i = 1.91, 0.51, 2                   q = 0.9286
Date    TT    R. A. (2000) Decl.     Delta      r    Elong.  Phase     V
2024 01 22    08 29 14.4 +15 53 49   0.1877  1.1711   174.5     4.6    24.4
...
2024 02 06    08 48 38.5 +17 01 44   0.08867 1.0741   173.5     5.9    22.6
...
2024 02 14    09 37 57.2 +19 15 41   0.04209 1.0292   173.7     6.0    20.9
...
2024 02 20    13 30 12.4 +17 22 09   0.01685 0.9998   131.3    48.0    20.2
2024 02 21    14 50 36.4 +12 19 43   0.01664 0.9952   112.5    66.6    20.7
2024 02 22    16 00 58.2 +06 29 11   0.01839 0.9909    95.3    83.6    21.5
...
2024 02 28    18 42 41.8 -08 29 42   0.04608 0.9673    58.8   118.9    25.3
...
2024 03 07    19 26 43.4 -11 49 52   0.09105 0.9440    55.6   119.8    26.8
...
2024 03 22    19 58 25.3 -13 07 08   0.1768  0.9288    62.7   107.5    27.4

M. P. C. Staff               (C) Copyright 2024 MPC           M.P.E.C. 2024-D94





More information about the Iaude mailing list